Weather in Kassiopi

Greece     39°47′19″N   19°55′21″E
temp.,
°C
wind,
m/s
gust,
m/s
humid.,
%
clouds,
%
prec.,
mm/h
press.,
hPa
HPBL,
m
18 may, tue
tue1800:00+17se57834 0.0 1012261
03:00+17se35853 0.0 1012207
06:00+16se22843 0.0 1012124
09:00+18s118025 0.0 1013264
12:00+19ssw12731 0.1 1014491
15:00+20wnw33693 0.1 1015566
18:00+21wnw33615 0.0 1014343
21:00+18wnw12771 0.0 101419
19 may, wed
wed1900:00+18ene11682 0.0 101511
03:00+17se22605 0.0 101531
06:00+16se22615 0.0 101482
09:00+18se23554 0.0 1014198
12:00+19s336462 0.0 1015400
15:00+21s545736 0.0 1014496
18:00+20sse54580 0.0 1013351
21:00+18sse44685 0.0 101377
20 may, thu
thu2000:00+17sse22730 0.0 101328
03:00+17se23720 0.0 101265
06:00+16sse11745 0.0 101297
09:00+18nw12720 0.0 1013344
12:00+18nw766876 0.0 1013633
15:00+18nw996943 0.0 1014800
18:00+18wnw91066100 0.0 1013729
21:00+16wnw67690 0.0 1013420
21 may, fri
fri2100:00+15nnw457230 0.0 1014356
03:00+14n23710 0.0 1014236
06:00+13nne23710 0.0 1014129
09:00+16n33630 0.0 1015339
12:00+18nw55540 0.0 1015715
15:00+19wnw76570 0.0 1016514
18:00+19wnw77620 0.0 1015452
21:00+18nw45718 0.0 1016122
22 may, sat
sat2200:00+15nne33670 0.0 101792
03:00+15ne22660 0.0 101690
06:00+15ene11655 0.0 101689
09:00+18se11565 0.0 1017213
12:00+19s225710 0.0 1018415
15:00+20s22555 0.0 1017598
18:00+20s12550 0.0 1017328
21:00+18sse01703 0.0 101773